Hourly Data Report for October 07, 2013

All times are specified in Local Standard Time (LST). Add 1 hour to adjust for Daylight Saving Time where and when it is observed.

PETAWAWA AWOS 2
ONTARIO

45°57'00.000" N
77°19'00.000" W
130.10 m
6106396
71625
YWA

Download Data

Hourly Data (October 2013)
Hourly Data Report for October 7, 2013
Temp Definition
°C
Dew Point Temp Definition
°C
Rel Hum Definition
%
Wind Dir Definition
10's deg

Wind Spd Definition
km/h
Visibility Definition
km
Stn Press Definition
kPa
Hmdx Definition


Wind Chill Definition


Weather Definition


TIME
00:00 11.8 11.8 100 7 11 5.6 99.05     Moderate Rain
01:00 12.5 12.5 100 11 11 1.8 98.93     Drizzle
02:00 13.6 13.6 100 11 6 4.8 98.88      
03:00 13.8 13.8 100 11 4 2.9 98.75      
04:00 15.6 15.6 100 10 7 4.0 98.67      
05:00 16.9 16.5 97 12 13 6.4 98.61      
06:00 17.4 16.7 96 12 9 6.4 98.57      
07:00 15.9 15.4 97 29 4 0.8 98.61     Heavy Rain
08:00 15.7 15.5 99 12 6 4.0 98.57     Moderate Rain
09:00 16.0 15.4 96 14 7 15.0 98.59     Rain
10:00 15.6 14.4 93 19 7 9.7 98.53     Rain
11:00 14.8 13.2 90 24 11 9.7 98.57     Rain
12:00 13.6 12.2 91 20 6 15.0 98.58     Rain
13:00 13.3 12.5 95 18 9 15.0 98.51     Rain
14:00 13.4 12.1 92 19 11 15.0 98.51      
15:00 14.4 12.9 91 19 7 15.0 98.50      
16:00 13.7 10.0 78 21 13 15.0 98.54      
17:00 12.5 9.8 84 21 15 15.0 98.61      
18:00 12.4 9.4 82 20 15 15.0 98.70      
19:00 9.0 6.1 82 27 22 15.0 99.09     Rain
20:00 8.0 5.1 82 28 17 15.0 99.35      
21:00 7.4 4.6 82 28 15 15.0 99.55      
22:00 7.7 4.2 78 26 13 15.0 99.70      
23:00 7.5 4.2 80 26 11 15.0 99.80      

Notes on Data Quality.

Legend

  • E = Estimated
  • M = Missing
  • NA = Not Available
  • ‡ = Partner data that is not subject to review by the National Climate Archives
Date modified: